Aéroport int. Stanfield de Halifax, Nouvelle Écosse

Conditions des dernières 24 heures

Date / Heure
(HAA)
Conditions Temp
(°C)
Humidité
(%)
Point de rosée
(°C)
Vent
(km/h)
Pression
(kPa)
Visibilité
(km)
25 octobre 2014
10:00 Brume 10 97 9 NO 18 99,8 8
9:00 Nuageux 9   96 9 NO 27 99,8 24
8:00 Nuageux 9   97 9 NO 28 99,7 24
7:00 Nuageux 9   97 9 NO 24 rafale 37 99,7 16
6:00 Généralement nuageux 9   97 9 NO 27 99,6 13
5:00 Généralement nuageux 10 97 9 NO 23 99,6 24
4:00 Nuageux 10 98 10 NO 19 99,6 16
3:00 Bruine faible 11 99 11 NO 20 99,6 2
2:00 Bruine faible 11 99 11 NO 21 99,6 5
1:00 Bruine faible 11 99 11 NO 20 99,6 0.8
0:00 Brouillard 12 99 12 NNO 17 99,6 0.4
24 octobre 2014
23:00 Brouillard 12 99 12 NNO 15 99,6 0.4
22:00 Brouillard 12 99 12 NO 21 99,6 0.4
21:00 Brouillard 13 99 13 NNO 18 99,7 0.8
20:00 Brume 13 98 13 N 8 99,7 5
19:00 Faible averse de pluie 14 98 14 N 12 99,7 4
18:00 Faible averse de pluie 14 94 13 ENE 10 99,7 3
17:00 Faible averse de pluie 15   99 15 N 13 99,7 2
16:00 Brouillard 15   99 15 N 12 99,7 0.2
15:00 Brouillard 14 99 14 N 12 99,8 0.2
14:00 Bruine faible 15   99 15 NNE 12 99,8 0.8
13:00 Bruine faible 14 99 14 NE 8 100,0 0.8
12:00 Bruine faible 13 98 13 NE 12 100,0 1
11:00 Bruine faible 13 98 13 ENE 13 100,1 1
10:00 Bruine faible 12 98 12 ENE 11 100,1 1
N.D. non disponible
↑ température la plus haute
↓ température la plus basse

Si vous désirez plus de données historiques sur les conditions météo, s.v.p. visitez Données climatologiques en ligne.

Date de modification :